Voltar ao catálogo

STARLINK-33697

AtivoComunicaçõesVLEO
NORAD 63467·PAYLOAD·🇺🇸 United States

Lançado Apr 6, 2025 de Cape Canaveral Space Force Station

Loading…

Próximas Passagens (próximas 24 horas)

TLE

AtualizadoSource: CelesTrak SupGP

Época: Sep 15, 2026, 03:42 UTC

1 63467C 25070H   26258.15465278 -.00019042  00000+0 -68981-3 0  2581
2 63467  43.0025 269.8651 0001497 267.9630  37.5505 15.27583270    19

Acompanhe STARLINK-33697 em tempo real com AllMySat

Download on the App Store